RH
32 26 22 17 13 9 7 5 4 2 2 2 2 2 1 2 2 2 2 2 2 2 2 2 2 3 3 4 5 6 6 7 8 9 10 12 15 18 22 25 28 32 36 40 42 46 49 52 56 59 62 65 67 70 72 75 78 80 82 84 86 88 89 90 90 90 90 91 92 92 92 93 94 94 94 94 94 94 94 94 94 94 94 94 94 94
21 15 10 7 5 3 2 2 2 1 1 1 1 1 2 2 2 2 2 2 2 2 2 2 2 2 3 3 4 4 5 6 6 7 8 8 10 12 14 17 20 23 26 30 33 37 40 44 48 52 55 58 60 63 67 70 73 76 78 80 81 83 84 86 87 88 89 90 90 90 91 92 92 93 94 94 94 95 95 95 95 95 95 95 95 94
10 6 3 2 2 1 1 1 1 1 2 2 2 2 2 2 2 2 2 2 2 2 2 2 3 3 3 3 4 4 4 5 5 6 6 7 8 8 10 12 14 17 20 23 26 28 31 35 39 42 46 48 52 55 58 62 66 69 72 74 76 78 79 80 82 83 85 86 86 87 88 88 89 90 91 92 92 93 94 94 94 94 95 95 95 95
3 2 1 1 1 1 1 1 2 2 2 2 2 2 2 2 2 2 2 2 3 3 3 3 3 3 3 4 4 4 5 5 5 6 6 6 7 8 8 10 10 12 14 16 17 20 22 24 28 30 33 36 39 43 46 50 54 58 62 65 68 72 74 76 78 80 81 82 83 84 84 85 86 86 87 88 89 90 90 90 92 92 92 93 94 94
1 1 2 2 2 2 2 2 2 2 2 2 2 2 2 2 3 3 3 3 3 3 3 4 4 4 4 4 4 5 5 5 5 5 5 6 6 6 6 6 7 7 8 8 10 10 12 14 15 17 19 22 24 27 31 35 39 42 46 51 56 60 64 68 72 75 77 79 80 82 82 83 84 84 84 85 85 86 86 87 88 88 89 90 90 92
2 2 2 2 2 2 2 2 2 2 3 3 3 3 3 3 4 4 4 4 4 4 4 4 4 4 4 4 4 4 4 4 4 4 4 4 4 4 4 4 4 4 4 4 4 5 5 6 6 7 8 9 10 12 15 18 20 24 27 32 36 41 46 52 57 61 66 70 73 76 77 79 80 81 82 83 83 84 84 84 84 85 85 86 86 87
3 3 3 3 3 3 3 3 3 3 4 4 4 4 4 4 4 4 4 4 4 4 4 5 5 5 5 4 4 4 4 4 4 4 4 4 4 4 4 4 3 3 3 3 3 3 3 3 3 3 3 3 3 4 4 6 7 8 10 13 16 20 24 28 33 38 43 48 52 56 60 63 67 70 72 74 76 78 79 80 81 81 82 82 82 83
4 4 4 4 4 4 4 4 4 4 4 5 5 5 5 6 6 6 6 6 6 6 6 6 6 6 6 6 6 5 5 5 5 5 5 5 4 4 4 4 4 4 4 4 4 4 4 4 3 3 3 3 2 2 2 2 2 3 3 4 5 7 8 10 13 16 20 23 26 30 34 38 42 45 49 53 57 60 63 66 68 71 72 74 75 76
4 4 4 4 4 4 5 5 5 5 6 6 6 6 7 7 7 7 7 7 7 7 6 7 7 7 7 7 7 6 6 6 6 6 6 6 6 6 5 5 5 5 5 5 5 5 5 4 4 4 4 4 4 4 3 3 3 3 3 3 3 3 3 4 4 5 6 8 10 11 13 16 18 21 24 27 30 34 38 42 45 49 52 56 58 62
5 5 5 5 5 5 6 6 6 6 6 7 8 8 8 8 8 8 8 8 8 8 8 8 8 8 8 8 8 8 7 7 7 7 7 7 7 6 6 6 6 6 6 6 6 6 6 6 5 5 5 5 4 4 4 4 4 4 4 4 3 3 3 3 3 3 3 3 3 4 4 5 6 7 8 10 11 13 16 18 21 24 28 32 35 39
5 6 6 6 6 6 6 7 7 8 8 8 8 9 10 10 10 10 10 10 10 10 9 8 8 8 8 8 8 8 8 8 8 8 8 8 8 8 8 8 7 7 7 7 7 7 6 6 6 6 6 5 5 5 5 5 4 4 4 4 4 4 4 4 4 3 3 3 3 3 3 3 3 3 3 3 4 4 5 6 7 8 10 12 15 18
6 6 6 6 7 7 7 8 8 8 9 10 10 10 10 10 10 10 10 11 11 11 10 10 10 10 9 9 9 9 9 8 8 8 8 8 8 8 8 8 8 8 8 8 8 8 7 7 6 6 6 6 6 5 5 5 5 5 5 5 4 4 4 4 4 4 4 4 4 4 3 3 3 3 3 3 3 2 2 3 3 3 4 4 5 6
7 7 7 8 8 8 8 9 10 10 10 11 11 12 12 12 12 12 11 11 11 11 11 11 11 10 10 10 10 10 10 10 10 10 10 10 10 9 9 9 9 8 8 8 8 8 8 7 7 6 6 6 6 6 5 5 5 5 5 5 5 4 4 4 4 4 4 4 4 4 4 4 4 3 3 3 3 3 3 3 2 2 2 2 2 2
8 8 8 8 8 9 10 10 10 11 12 12 12 12 12 13 12 12 12 12 12 12 12 12 12 12 12 11 11 11 10 10 11 10 10 10 10 10 10 10 10 10 9 8 8 8 8 8 7 7 6 6 6 6 5 5 5 5 5 5 5 4 4 4 4 4 4 4 4 4 4 4 4 4 4 3 3 3 3 3 3 3 2 2 2 2
8 8 9 10 10 10 10 11 12 12 13 13 13 13 14 14 14 13 13 13 13 13 13 13 13 14 13 13 12 12 12 12 12 12 12 12 11 11 10 10 10 10 10 9 8 8 8 8 7 7 6 6 6 6 5 5 5 5 5 5 5 4 4 4 4 4 4 4 4 4 4 4 4 4 3 3 3 3 3 3 3 3 3 3 3 2
10 10 10 10 10 11 12 12 12 13 13 14 14 14 14 14 14 14 14 14 14 14 14 14 14 15 15 15 14 13 13 13 13 13 13 13 12 12 12 11 10 10 10 10 9 8 8 8 7 7 6 6 6 6 6 5 5 5 5 5 5 4 4 4 4 4 4 4 4 4 4 4 4 3 3 3 3 3 3 3 3 3 3 3 3 3
10 10 10 11 11 12 12 13 13 14 14 14 14 15 15 15 15 15 15 15 15 16 16 16 16 16 17 17 16 15 15 15 15 15 14 14 14 13 12 12 11 10 10 10 10 8 8 8 8 7 7 6 6 6 6 6 6 5 5 5 5 5 5 4 4 4 4 4 4 4 4 4 4 3 3 3 3 3 3 3 3 3 3 3 3 3
11 11 11 12 12 12 13 14 14 14 14 15 15 15 16 16 16 16 16 16 17 17 17 17 17 17 18 18 18 18 17 16 16 16 16 15 14 14 13 12 11 11 10 10 10 9 8 8 8 8 7 7 6 6 6 6 6 6 6 6 5 5 5 5 5 4 4 4 4 4 4 4 4 4 3 3 3 3 3 3 3 3 3 3 3 3
12 12 12 12 12 13 14 14 14 14 15 15 16 16 16 16 17 17 17 18 18 18 18 19 19 19 20 20 20 20 19 18 18 17 16 16 15 15 14 13 12 11 11 10 10 10 9 8 8 8 7 7 7 7 6 6 6 6 6 6 6 6 5 5 5 5 4 4 4 4 4 4 4 4 4 4 3 3 3 3 3 3 3 3 3 2
12 12 12 12 13 14 14 14 15 15 15 16 16 16 17 17 17 18 18 18 19 19 20 20 20 20 21 21 21 21 20 20 19 18 17 16 16 15 14 13 12 12 12 11 10 10 10 9 8 8 8 8 8 7 7 7 7 7 6 6 6 6 6 5 5 5 5 5 4 4 4 4 4 4 4 4 4 3 3 3 3 3 3 3 2 2
13 13 13 13 13 14 14 15 15 15 16 16 16 17 17 18 18 18 19 19 20 20 20 21 21 21 22 22 22 22 21 20 19 18 18 17 16 15 15 14 13 12 12 11 11 10 10 10 9 8 8 8 8 8 8 8 7 7 7 6 6 6 6 6 5 5 5 5 5 5 4 4 4 4 4 4 4 4 3 3 3 3 3 3 2 2
14 14 14 14 14 14 14 15 15 15 16 16 16 16 17 18 18 19 19 20 20 20 21 21 22 22 22 22 22 22 22 21 20 19 18 17 16 16 16 14 13 12 12 12 11 11 10 10 10 10 9 9 8 8 8 8 8 7 7 7 6 6 6 6 6 6 5 5 5 5 5 4 4 4 4 4 4 4 4 3 3 3 3 3 2 2
15 14 14 14 14 14 14 15 15 15 16 16 16 16 17 18 18 18 19 20 20 21 21 22 22 23 23 23 23 22 22 21 20 20 19 18 17 16 16 15 14 13 13 12 12 12 12 11 10 10 10 10 10 9 8 8 8 8 8 7 7 7 6 6 6 6 6 6 5 5 5 5 4 4 4 4 4 4 4 3 3 3 3 3 3 3
16 16 16 15 15 15 15 15 15 15 15 16 16 16 17 18 18 19 20 20 20 21 22 22 23 23 23 23 23 22 22 22 21 20 19 18 18 17 16 15 14 14 14 13 13 13 12 12 12 11 11 10 10 10 10 10 9 8 8 8 8 8 7 7 7 6 6 6 6 5 5 5 5 4 4 4 4 4 4 3 3 3 3 3 3 3
19 18 18 17 16 16 16 16 15 15 15 16 16 16 16 17 18 18 19 20 21 21 22 22 22 23 23 23 23 22 22 22 21 20 19 18 18 17 17 16 15 15 14 14 14 14 13 13 12 12 12 12 11 11 10 10 10 10 10 9 8 8 8 8 7 7 6 6 6 6 5 5 5 5 4 4 4 4 4 4 4 4 4 4 4 4
23 22 21 20 19 18 18 17 16 16 16 16 16 16 16 17 18 18 19 20 21 21 22 22 22 23 23 23 22 22 22 21 20 19 18 18 17 17 18 17 16 16 15 15 14 14 14 14 14 14 14 13 13 12 12 12 11 11 10 10 10 8 8 8 8 7 7 6 6 6 6 6 5 5 5 5 5 5 4 4 5 5 5 5 6 6
27 26 25 24 23 22 20 20 19 18 18 17 17 17 17 17 17 18 19 20 21 21 21 22 22 22 23 22 22 22 22 21 20 19 18 18 18 18 18 18 17 16 16 15 15 15 14 14 15 15 15 15 14 14 14 13 12 12 11 10 10 10 8 8 8 8 7 7 7 6 6 6 6 6 6 6 6 6 6 6 6 6 7 8 8 8
30 30 29 28 27 26 24 23 22 21 20 19 18 18 18 17 17 18 19 20 20 20 21 21 22 22 22 22 22 22 22 21 20 20 19 19 18 18 19 18 18 17 16 16 16 16 16 16 16 16 16 16 16 16 15 14 14 13 12 11 10 10 9 8 8 8 8 8 7 7 7 7 7 7 7 7 7 7 7 8 8 8 10 10 11 12
32 32 32 31 30 29 28 26 25 24 23 22 20 20 19 18 18 18 19 20 20 20 20 21 22 22 22 21 21 22 22 21 21 20 20 20 20 20 20 19 18 17 17 16 16 17 17 17 17 18 18 18 18 18 17 16 15 14 12 12 11 10 10 10 9 9 8 8 8 8 8 8 8 8 8 8 8 9 10 10 10 11 12 13 14 16
35 35 34 34 33 32 30 29 28 26 25 24 22 21 20 19 19 18 19 19 20 20 20 21 22 22 21 21 21 22 22 22 22 21 20 20 20 20 20 19 18 18 18 17 17 18 18 18 19 19 19 19 19 18 18 17 16 14 14 12 12 11 11 10 10 10 10 10 10 10 9 9 9 10 10 10 10 11 12 12 13 14 15 16 18 19
40 40 39 38 36 34 33 31 30 28 26 26 24 23 22 21 20 20 19 20 20 20 21 21 21 21 21 21 21 21 22 22 22 22 20 20 20 20 20 19 19 18 18 18 18 18 19 19 20 20 20 20 19 19 18 18 17 16 14 14 13 12 12 12 11 11 11 11 11 11 11 11 11 11 12 12 13 13 14 15 16 17 18 19 21 22
44 44 44 42 40 39 36 34 32 30 28 26 25 24 22 22 21 20 20 20 20 20 20 21 21 21 21 21 21 21 22 22 22 22 20 20 20 20 20 19 19 19 18 19 19 19 20 20 21 21 21 20 20 19 19 18 18 16 16 14 14 13 13 13 13 13 13 13 13 13 13 13 13 14 14 15 16 16 17 18 19 20 21 22 23 24
47 48 49 48 46 45 42 40 37 34 31 28 26 24 24 22 22 21 20 20 20 20 20 20 21 21 21 21 21 22 22 22 22 22 20 20 20 20 20 20 19 19 20 20 20 21 21 22 22 22 21 21 20 20 19 19 18 17 16 16 15 14 14 14 14 14 15 15 15 15 15 15 16 16 17 18 19 20 20 21 22 23 24 24 25 26
48 50 51 52 52 51 49 46 42 39 36 32 30 27 26 24 23 22 22 21 21 20 20 20 21 21 21 21 21 22 22 22 22 22 21 20 20 20 20 20 20 20 20 21 22 22 23 23 23 23 22 22 21 20 20 19 18 18 17 16 16 16 16 16 16 16 16 17 17 17 17 18 18 18 19 20 22 23 24 24 26 26 26 27 28 28
48 50 51 53 54 54 53 51 48 45 41 37 34 30 28 26 24 24 23 22 22 22 22 21 21 21 21 21 21 22 22 23 23 23 21 20 19 20 20 20 20 21 22 22 23 24 24 24 24 24 23 22 22 21 20 20 19 18 18 17 17 17 17 17 18 18 18 19 19 19 19 20 20 21 22 23 24 26 26 28 28 29 30 30 30 31
49 50 52 53 54 55 55 54 52 50 46 41 37 33 30 28 26 25 24 24 23 23 23 22 22 21 21 21 21 21 22 22 23 22 21 20 20 20 20 21 22 22 23 24 24 24 24 24 24 24 24 23 22 22 21 20 20 19 18 18 18 18 18 18 19 20 21 21 21 21 21 21 22 22 23 24 26 27 29 30 31 32 33 34 34 34
49 50 52 53 55 56 57 56 55 53 50 45 40 36 32 29 27 26 25 24 24 24 23 23 22 22 22 21 21 21 21 22 22 22 21 21 20 20 21 21 22 22 24 24 25 26 26 26 26 24 24 23 22 22 22 21 20 20 19 19 20 20 20 20 21 22 23 24 24 24 23 23 23 23 24 25 26 28 30 32 33 34 36 36 36 36
47 49 51 52 54 56 57 58 58 57 54 49 44 39 34 31 28 26 26 24 24 24 23 23 23 22 22 22 22 21 22 22 22 22 22 21 21 21 21 22 22 23 24 25 26 26 26 26 26 26 25 24 23 23 22 22 21 21 20 21 22 22 23 23 24 24 26 26 26 26 26 26 24 24 24 25 26 28 30 32 34 36 37 38 38 38
45 47 48 51 53 55 57 58 60 60 58 53 48 42 38 34 31 28 26 26 24 24 24 23 22 22 22 22 22 22 22 22 22 22 22 22 22 22 22 23 24 24 25 26 26 27 28 27 27 26 26 24 24 23 23 22 22 22 22 22 24 24 26 26 26 27 28 29 30 30 29 28 28 27 26 26 26 28 29 31 33 35 36 38 38 39
43 44 46 48 51 53 56 58 60 61 60 57 53 48 43 38 34 31 28 27 26 24 24 24 23 22 22 22 22 22 22 22 22 22 22 22 23 23 24 24 24 25 26 26 27 28 29 28 28 27 26 24 24 24 24 24 23 23 23 24 26 27 28 29 30 32 32 34 34 35 34 33 32 31 29 28 28 28 29 30 31 33 34 36 37 38
42 43 44 46 48 50 53 56 59 60 61 60 58 55 50 44 38 33 30 27 26 25 24 24 23 22 23 23 23 23 23 23 23 23 23 23 24 24 25 26 26 26 27 28 29 29 30 30 29 28 27 26 25 24 24 24 24 24 25 26 28 29 31 34 35 36 37 38 38 39 39 39 38 36 34 33 32 30 30 30 31 32 33 34 36 37
42 42 43 44 46 48 51 54 57 60 62 63 64 62 58 52 45 39 33 29 26 24 24 23 22 21 20 21 23 24 25 24 24 24 23 24 24 25 26 27 28 28 29 30 31 31 31 30 30 28 28 26 26 26 26 26 26 26 26 27 28 29 32 35 37 38 40 42 42 43 45 45 44 43 41 39 37 35 34 33 33 33 33 34 34 35
42 42 42 43 45 47 50 53 56 60 62 66 68 68 64 58 51 45 39 34 30 27 24 22 21 21 22 22 23 24 26 26 26 25 24 24 25 26 27 28 30 31 31 32 32 32 32 30 30 29 28 27 27 26 26 26 27 27 27 27 28 30 33 35 38 40 42 45 47 48 50 51 50 50 48 46 44 42 40 39 38 37 36 36 36 36
40 41 42 42 45 47 50 52 55 58 62 65 67 68 66 60 56 50 44 38 34 30 26 24 23 23 24 24 26 26 27 28 27 26 25 26 26 28 29 31 32 33 33 33 33 33 32 31 30 29 28 28 27 27 27 28 28 28 29 30 31 33 35 37 40 42 44 46 48 50 52 53 54 54 54 53 52 50 49 47 45 44 42 42 40 40
40 40 41 42 44 47 50 53 56 58 62 65 68 69 69 63 58 53 47 41 36 32 28 26 25 25 26 27 29 30 30 28 27 26 26 28 29 30 32 33 34 34 34 34 33 33 32 32 31 30 28 28 28 28 29 29 30 30 32 32 34 36 37 40 42 44 45 47 49 51 52 54 55 56 56 56 57 56 56 55 54 53 52 51 50 48
40 41 42 44 46 49 52 55 58 60 64 66 68 69 68 64 59 54 48 42 37 33 29 26 26 26 26 29 31 32 31 29 27 27 28 30 32 33 34 35 35 35 35 34 34 33 32 32 31 30 29 29 29 30 30 31 32 32 33 34 36 38 40 42 44 46 48 49 51 52 53 54 55 56 56 57 58 60 60 61 61 61 60 60 58 58
43 44 46 47 50 52 55 57 60 63 66 68 70 70 68 65 60 55 49 43 38 33 29 28 27 28 29 32 33 32 31 29 29 29 30 32 34 35 36 36 36 36 35 35 34 34 33 32 32 31 31 31 31 31 32 32 33 33 34 35 36 38 40 42 44 46 48 50 52 53 54 55 56 56 56 56 58 60 61 63 64 64 65 65 64 64
48 49 50 52 54 56 58 60 63 66 69 71 71 71 70 66 60 55 49 44 39 34 31 30 30 31 32 34 34 33 31 30 31 32 34 35 36 36 37 37 37 36 36 35 34 34 34 33 33 33 33 32 32 32 32 33 33 34 35 36 37 39 40 42 44 46 49 51 53 54 55 56 56 56 55 56 56 58 60 62 64 65 66 66 66 66
54 54 54 56 57 58 60 63 66 69 72 74 73 72 70 66 61 56 49 44 40 36 33 32 32 33 33 34 33 33 32 32 34 35 37 38 38 38 38 37 36 36 35 35 34 34 34 34 34 34 34 34 34 34 34 34 34 34 36 37 39 40 42 42 45 47 50 52 54 55 56 57 57 56 56 56 56 56 58 60 62 63 64 65 66 66
58 57 57 58 60 61 63 66 69 72 74 76 75 72 69 66 62 57 51 45 40 36 34 33 33 32 31 31 31 32 33 34 36 38 39 40 40 39 38 37 36 36 35 35 34 33 33 32 32 33 34 35 35 36 35 34 34 35 36 38 40 42 43 44 46 48 50 53 54 56 58 58 58 58 58 57 56 56 56 58 60 62 63 64 65 65
60 59 59 60 61 63 66 68 72 74 77 78 76 72 67 62 58 55 50 44 40 36 34 34 32 31 30 30 31 33 35 37 38 40 40 40 40 39 38 38 37 36 36 35 34 34 32 31 30 31 33 35 36 36 36 35 35 35 36 38 40 42 44 45 46 48 49 51 52 54 56 58 58 59 59 58 56 55 55 56 58 60 62 63 64 64
Wind_Speed
15 14 14 13 14 14 15 15 16 16 17 17 17 17 17 17 17 17 17 17 17 17 17 18 18 18 18 19 19 19 19 19 19 19 19 19 20 20 20 20 20 20 19 19 19 19 19 19 19 18 18 18 18 18 18 18 17 16 16 15 14 13 13 13 13 13 13 14 14 14 15 16 16 16 16 16 16 16 16 17 17 17 17 17 17 17
15 14 14 14 15 15 16 16 17 17 17 17 17 17 16 16 16 17 17 17 17 17 18 18 18 18 19 19 19 19 19 20 20 20 20 20 21 21 21 21 21 21 21 21 21 20 20 20 20 20 20 19 19 19 19 19 18 18 17 17 16 15 15 14 14 14 14 14 14 14 15 15 15 15 15 15 15 16 16 16 16 16 16 16 17 16
16 16 16 16 16 16 17 17 17 16 16 16 16 16 16 16 16 17 17 17 18 18 18 19 19 19 19 19 20 20 20 20 20 21 21 21 22 22 22 22 22 22 22 22 22 22 21 21 21 21 21 21 20 20 20 20 20 19 19 19 18 17 17 16 16 15 15 15 15 15 15 15 15 15 16 16 16 16 16 16 16 17 17 17 17 17
16 17 17 17 17 17 17 16 16 16 16 16 16 16 16 16 16 17 17 17 18 18 19 19 19 19 19 20 20 20 21 21 21 21 21 22 22 22 22 23 23 23 23 23 23 23 23 22 22 22 22 22 22 21 21 21 21 21 21 21 20 20 19 19 18 18 17 17 17 17 17 17 17 17 17 17 17 17 17 17 17 17 17 17 17 18
17 17 17 17 16 16 16 16 16 16 16 16 16 16 16 17 17 17 17 18 18 18 19 19 19 19 19 19 20 20 20 21 21 21 21 22 22 22 22 23 23 23 23 23 23 23 23 23 23 23 23 23 23 22 22 22 22 22 22 22 22 22 22 21 21 20 20 20 19 19 19 19 18 18 18 18 18 18 18 18 18 18 18 18 18 18
17 17 17 16 16 16 16 16 16 16 16 16 16 17 17 17 17 18 18 18 18 19 19 19 19 19 19 19 20 20 20 21 21 21 21 21 22 22 22 22 22 22 22 22 23 23 23 23 23 23 23 23 23 23 23 23 23 23 23 23 23 23 23 23 23 23 22 22 22 22 21 21 21 20 20 20 20 20 20 20 20 20 20 19 19 19
17 17 16 16 16 16 16 16 16 16 16 17 17 17 18 18 18 18 18 19 19 19 20 20 20 20 20 20 20 20 20 21 21 21 21 21 21 21 22 22 22 22 22 22 22 22 22 23 23 23 23 24 24 24 24 24 24 24 24 24 24 24 25 24 24 24 24 24 24 24 24 24 23 23 23 22 22 22 22 22 22 21 21 21 21 21
17 16 16 16 16 16 16 16 17 17 17 17 17 18 18 18 19 19 19 20 20 20 20 20 20 20 20 20 20 21 21 21 21 21 21 21 21 21 22 22 22 22 21 22 22 22 22 22 22 22 23 23 23 23 24 24 24 24 25 25 25 25 25 25 25 25 26 26 26 26 26 26 26 25 25 25 25 24 24 24 24 23 23 23 23 22
16 16 17 17 17 17 17 17 18 18 18 18 18 18 18 19 19 20 20 20 20 21 21 21 21 21 21 21 21 21 21 21 21 22 22 22 22 22 22 22 22 22 22 22 22 22 21 21 21 22 22 22 22 23 23 24 24 24 25 25 25 25 25 25 25 26 26 26 26 27 27 27 27 27 27 27 26 26 26 26 25 25 25 25 24 24
17 17 17 17 18 18 17 17 18 19 19 19 19 19 19 20 20 20 20 20 20 21 21 22 22 22 21 21 22 22 22 22 22 22 22 22 22 22 22 22 22 22 22 22 22 22 22 22 22 22 22 22 22 22 23 23 23 24 24 25 25 25 25 25 25 25 25 26 26 26 27 27 27 27 27 27 27 27 27 27 27 27 27 26 26 26
17 18 18 18 18 18 18 18 19 19 19 20 20 20 21 21 21 21 21 21 21 21 21 22 22 22 22 22 22 22 22 22 22 23 23 23 23 23 23 23 23 23 23 23 22 22 22 22 22 22 22 23 23 23 23 23 23 24 24 24 25 25 25 25 25 25 25 26 26 26 26 26 27 27 27 27 28 28 28 28 28 28 28 28 28 28
18 18 18 19 19 19 19 19 20 20 20 20 20 21 21 21 22 22 22 22 22 21 21 22 22 22 22 22 22 22 22 22 23 23 23 23 23 23 23 23 23 23 23 23 23 23 23 23 23 23 23 23 23 23 23 23 23 24 24 24 24 24 25 25 25 25 26 26 26 26 26 26 27 27 27 28 28 28 28 28 28 28 28 28 28 29
19 19 19 19 19 19 20 20 20 20 21 21 21 21 21 21 22 22 22 22 22 22 22 22 22 22 22 22 22 22 22 23 23 23 23 23 23 24 24 24 24 24 24 24 23 23 23 23 24 24 24 24 24 24 24 24 24 24 24 25 25 25 25 25 25 25 26 26 26 26 26 27 27 27 27 28 28 28 28 29 29 29 29 29 29 29
20 20 20 20 20 20 21 21 21 21 21 21 21 22 22 22 22 22 22 22 22 22 22 22 21 21 21 22 22 23 23 23 23 23 23 23 23 24 24 24 24 24 24 24 24 24 24 24 24 24 24 24 24 25 25 25 25 25 25 26 26 26 26 26 26 26 26 26 26 27 27 27 27 27 28 28 28 28 28 29 29 29 29 29 30 30
21 21 21 21 21 21 21 21 22 21 21 22 22 22 22 22 22 22 22 22 22 22 22 22 22 22 21 21 22 22 23 23 23 22 23 23 23 23 24 24 24 24 24 24 24 24 24 24 24 25 25 25 25 25 26 26 26 26 26 26 27 27 27 27 27 27 27 27 27 27 27 27 27 28 28 28 28 28 29 29 29 29 29 30 30 30
21 22 22 22 22 22 22 22 22 22 22 22 22 22 22 22 22 22 22 22 22 22 22 22 22 22 22 21 22 22 23 23 22 22 22 23 23 24 24 23 24 24 24 24 24 24 25 25 25 25 25 26 26 26 26 27 27 27 27 27 27 27 28 28 28 28 28 28 28 28 28 28 28 28 28 28 28 29 29 29 29 29 30 30 30 30
22 22 22 22 22 22 22 22 22 22 22 22 22 22 22 22 22 22 22 22 21 21 21 21 22 22 22 22 22 22 23 23 22 22 23 23 24 24 24 24 24 24 24 24 24 25 25 25 25 25 25 26 26 26 27 27 27 28 28 28 28 28 28 28 28 28 28 28 28 29 29 29 29 29 29 29 29 29 29 29 29 29 30 30 30 31
22 22 22 23 23 22 22 22 22 22 22 22 22 22 22 22 22 22 22 21 21 21 21 21 22 22 23 22 22 22 23 23 23 23 23 23 24 24 24 24 24 24 24 24 24 25 24 25 25 25 25 26 26 27 27 27 28 28 28 28 28 28 28 28 28 28 28 28 28 28 29 29 29 29 29 29 29 29 29 29 29 30 30 30 30 31
22 23 23 23 23 23 23 23 22 22 23 22 22 22 22 22 22 22 22 22 21 21 21 21 22 22 23 23 23 23 23 23 23 23 23 23 24 24 24 24 24 24 24 24 25 25 24 25 25 25 25 26 26 27 27 27 28 28 28 28 28 28 28 28 28 28 28 28 28 28 29 29 29 29 29 29 29 29 29 29 29 30 30 30 30 30
22 23 23 23 23 23 23 23 23 23 23 23 22 22 22 22 22 22 22 22 22 22 22 22 22 22 23 23 23 24 24 23 23 23 23 23 24 24 25 25 25 25 25 25 25 25 25 25 25 25 25 26 26 27 27 27 27 28 28 28 28 28 28 28 28 28 28 28 28 28 28 29 29 29 29 30 30 30 30 30 30 30 30 30 30 30
23 23 23 24 24 24 23 23 23 23 23 23 23 23 22 22 22 22 22 22 22 22 22 22 23 23 23 23 24 24 24 24 23 23 23 23 24 24 25 25 25 25 25 25 25 25 25 25 25 25 25 26 26 27 27 27 27 27 28 28 28 28 28 28 27 27 27 27 28 28 28 28 28 29 29 29 30 30 30 30 30 29 29 29 29 29
23 23 23 24 24 24 24 24 23 23 23 23 23 23 23 23 22 22 22 22 22 23 23 23 23 24 24 24 24 25 25 24 24 23 23 23 23 24 25 25 25 25 25 25 26 26 25 25 25 25 26 26 26 27 27 27 27 27 27 28 28 28 28 28 28 27 27 27 28 28 28 28 28 28 29 29 29 29 30 30 29 29 29 28 28 28
23 23 23 24 24 24 24 24 24 24 24 24 23 23 23 23 23 23 23 23 23 23 23 24 24 24 25 25 25 25 25 25 25 24 24 23 23 24 25 25 25 25 25 26 26 26 26 25 25 25 26 26 26 27 27 27 27 27 27 28 28 28 28 28 28 28 28 28 27 27 27 27 28 28 28 28 28 29 29 29 29 28 28 28 27 26
23 23 24 24 24 24 24 24 24 24 24 24 24 24 24 24 24 23 23 24 24 24 24 24 24 25 25 25 25 26 26 26 26 25 24 24 24 24 25 25 25 25 25 26 26 26 26 26 26 26 26 26 26 27 27 27 27 27 27 28 28 28 28 28 28 28 28 28 27 27 27 27 27 27 27 27 28 28 28 28 28 27 27 26 26 25
23 23 24 24 24 24 24 24 24 24 24 24 24 24 24 24 24 24 24 24 24 24 24 24 24 25 25 26 26 26 26 27 27 26 25 25 25 25 26 26 25 25 25 26 26 26 26 26 26 26 26 26 26 26 27 27 27 27 27 27 28 28 28 28 28 28 28 28 27 27 27 27 27 27 27 27 27 27 27 27 26 26 25 25 24 24
23 23 24 24 24 24 24 25 25 25 25 25 25 25 25 25 25 25 25 25 25 25 25 25 25 25 26 26 26 26 26 27 27 27 26 26 25 26 26 26 26 25 26 26 27 27 26 26 26 26 26 26 26 26 26 27 27 27 27 27 27 28 28 28 28 28 28 27 27 27 27 27 26 26 26 26 26 26 26 25 25 25 24 23 23 22
23 23 24 24 24 24 24 25 25 25 25 25 25 25 25 25 25 26 26 26 26 26 25 25 25 25 26 26 26 26 26 26 27 27 27 26 26 26 26 27 26 26 26 26 27 27 27 27 27 27 27 27 27 26 26 27 27 27 27 27 27 27 27 27 27 27 27 27 27 27 26 26 26 26 26 25 25 25 25 24 24 23 23 22 22 21
23 24 24 24 24 24 25 25 25 25 25 25 26 26 26 26 26 26 26 26 26 26 26 25 25 25 25 25 26 26 26 26 26 27 27 26 26 26 27 27 27 26 26 26 27 27 27 27 28 28 28 28 27 27 27 27 27 27 27 27 27 27 27 27 27 27 27 27 27 26 26 26 26 25 25 25 24 24 24 23 23 22 22 21 21 20
24 24 24 25 25 25 25 25 25 25 26 26 26 26 26 26 26 26 26 26 26 26 26 26 26 26 25 25 26 26 26 26 27 27 27 26 26 26 27 27 27 27 26 26 26 27 27 28 28 28 28 29 28 28 28 27 27 26 26 26 26 26 26 26 26 27 27 26 26 26 26 26 25 25 24 24 24 23 23 23 22 22 21 21 20 20
24 24 25 25 25 25 25 26 26 26 26 26 26 26 26 26 26 26 26 26 26 26 26 26 26 26 26 26 26 26 26 26 27 27 27 26 26 26 27 27 27 27 27 26 26 26 27 28 28 29 29 29 29 29 29 28 27 27 26 26 25 25 26 26 26 26 26 26 26 26 26 26 25 25 24 24 23 23 22 22 22 22 21 21 20 20
23 24 24 25 25 25 26 26 26 26 26 27 27 27 27 27 26 26 26 26 26 26 26 26 26 26 26 26 25 25 26 26 27 27 27 26 26 27 27 27 27 27 27 27 26 25 25 27 28 28 29 29 30 30 30 30 29 28 27 26 25 25 25 25 25 26 26 26 26 26 26 26 25 25 24 23 23 23 22 22 22 22 22 21 21 21
23 23 24 24 25 25 25 26 26 26 26 27 27 27 27 27 27 27 27 27 26 26 26 26 26 26 26 26 26 26 26 26 26 27 27 26 26 27 27 27 27 27 28 27 27 25 25 25 26 27 28 28 29 30 31 31 31 30 29 27 26 25 24 24 24 25 25 25 26 26 26 25 25 25 24 24 23 23 23 23 22 22 22 22 22 22
23 23 23 24 24 24 25 25 26 26 26 26 27 27 27 27 27 27 27 27 27 27 26 26 26 26 26 26 26 26 27 26 26 26 26 26 26 26 27 27 27 27 27 27 27 27 26 26 26 26 27 27 28 29 30 31 31 31 30 29 28 26 25 24 23 23 24 24 25 25 25 25 25 25 24 24 24 23 23 23 23 23 23 23 22 22
23 24 24 24 24 24 25 25 25 26 26 26 27 27 27 27 27 27 27 27 27 27 27 26 26 26 26 26 26 27 27 27 27 26 26 26 26 26 27 27 27 27 27 27 27 27 27 27 26 26 26 27 27 28 29 30 31 31 31 30 29 28 27 25 24 23 23 23 23 24 24 25 25 25 25 24 24 24 24 24 24 24 24 23 23 23
24 24 24 24 24 25 25 25 25 26 26 26 27 27 27 27 27 27 27 27 27 27 27 27 27 26 26 26 26 26 27 27 27 27 27 26 26 26 26 26 27 27 27 27 27 27 27 27 27 27 26 26 27 28 29 29 30 30 31 31 30 30 28 27 26 24 23 23 23 23 23 24 24 25 25 25 25 25 25 25 25 25 24 24 24 23
24 25 25 25 25 25 25 25 26 26 26 26 27 27 27 27 28 28 28 28 28 28 28 27 27 27 27 26 26 26 26 27 27 27 27 27 26 26 26 26 27 27 27 27 27 27 26 26 27 27 27 26 26 27 28 29 30 30 30 31 31 30 30 29 27 26 25 24 23 23 23 23 24 24 25 25 25 25 25 25 25 25 25 25 24 24
25 25 25 26 26 26 26 26 26 26 26 26 27 27 27 28 28 28 28 28 28 28 28 28 28 27 27 27 27 27 27 27 27 27 27 27 27 26 26 26 27 27 27 27 27 27 27 26 27 27 27 27 26 27 27 28 29 29 30 30 30 30 30 30 29 28 27 25 24 24 23 23 23 24 24 25 25 25 26 26 26 25 25 25 25 25
26 26 26 26 26 26 26 26 27 27 27 27 27 27 28 28 28 28 29 29 29 28 28 28 28 28 27 27 27 27 27 27 27 27 27 27 27 27 26 26 27 27 27 27 27 27 27 27 27 27 27 27 27 27 27 28 28 29 29 30 30 30 30 30 30 29 28 27 26 25 24 24 24 24 24 25 25 25 26 26 26 26 26 26 25 25
27 27 27 27 27 27 27 27 27 27 27 27 28 28 28 28 29 29 29 29 29 29 29 28 28 28 28 27 27 27 27 27 27 27 27 27 27 27 27 27 27 27 28 28 28 27 27 27 27 27 27 27 27 27 27 28 28 28 29 29 29 30 30 30 30 30 29 28 27 26 25 25 24 24 24 25 25 25 26 26 26 26 26 26 26 26
28 28 28 28 28 28 28 28 28 28 28 28 28 28 29 29 29 29 29 29 29 29 29 29 28 28 28 28 27 27 27 27 27 27 27 27 28 28 28 27 27 27 28 28 28 28 28 28 28 28 28 27 27 27 27 28 28 28 29 28 28 29 30 30 30 30 30 29 28 27 27 26 25 25 25 25 25 26 26 26 26 26 26 26 26 26
28 28 28 28 28 28 28 28 29 29 29 29 29 29 29 29 29 29 29 29 29 29 29 29 29 28 28 28 28 28 27 27 27 27 27 27 28 28 28 28 28 28 28 28 28 28 28 28 28 28 28 28 27 27 27 27 28 28 29 28 28 28 29 29 30 30 30 30 29 29 28 27 26 26 25 25 26 26 26 26 27 27 27 26 26 26
29 29 29 29 29 29 29 29 29 29 29 29 29 29 29 29 29 29 29 29 29 29 29 29 28 28 28 28 28 28 28 28 27 27 27 27 27 28 28 28 28 28 28 28 28 28 28 28 28 28 28 28 28 27 27 27 28 29 29 29 28 28 28 29 29 30 30 30 30 29 28 28 27 26 26 26 26 26 27 27 27 27 27 27 27 27
29 29 29 29 29 29 29 30 30 30 30 30 30 30 30 30 29 29 29 29 29 29 29 29 28 28 27 27 28 28 28 28 27 27 27 27 27 27 28 28 28 28 28 28 28 28 29 29 29 29 29 28 28 28 28 28 28 29 29 29 29 28 28 28 29 29 29 30 30 29 29 29 28 27 27 26 26 27 27 27 27 27 27 27 27 27
30 30 30 30 30 30 30 30 30 30 30 30 30 30 30 30 30 29 29 29 29 29 29 29 28 28 27 27 28 28 28 28 27 27 27 27 27 27 28 28 28 28 28 28 28 28 29 29 29 29 29 29 28 28 28 28 28 28 29 29 29 28 28 28 28 29 29 29 29 30 29 29 28 28 27 27 27 27 27 27 28 28 28 27 27 27
30 31 31 31 31 31 31 31 30 30 30 30 30 30 30 30 29 29 29 29 29 29 28 28 28 28 27 28 28 28 28 27 27 27 27 27 28 28 28 28 28 28 28 28 28 28 28 29 29 29 29 29 29 28 28 28 28 28 29 29 29 28 28 28 28 28 28 29 29 29 29 29 29 28 28 27 27 27 28 28 28 28 28 28 27 27
31 31 31 32 32 32 31 31 31 31 30 30 30 30 30 29 29 29 29 28 28 28 28 28 28 27 27 28 28 28 28 27 27 27 27 28 28 28 28 28 28 29 29 29 29 29 29 29 29 29 29 29 29 29 28 29 29 29 28 28 28 28 28 28 28 28 28 28 28 29 29 29 28 28 28 28 28 28 28 27 27 27 27 27 27 27
32 32 33 33 33 33 33 32 32 31 31 30 30 29 29 29 29 28 28 28 28 28 28 28 28 28 28 28 28 28 28 28 27 27 28 28 28 28 29 29 29 29 29 29 29 29 29 29 29 29 29 28 28 28 29 29 29 29 28 28 28 27 27 27 27 27 28 28 28 28 28 28 28 28 28 27 27 27 27 27 27 27 27 27 27 26
33 33 33 33 33 33 33 33 32 32 31 31 30 29 29 29 28 28 28 28 28 27 27 28 28 28 28 28 29 29 28 28 28 28 28 28 29 29 29 29 29 29 29 30 30 30 29 29 29 29 29 28 28 28 28 28 28 28 28 28 27 27 27 26 27 27 27 27 27 28 28 28 28 28 28 27 27 27 26 26 26 26 26 26 26 26
33 33 34 34 34 34 33 33 33 32 32 31 30 29 29 28 28 27 27 27 27 27 27 27 28 28 28 28 29 29 28 28 28 28 29 29 29 29 29 29 29 30 30 30 30 30 30 30 29 29 28 28 28 28 28 28 28 28 28 28 27 27 26 26 26 26 27 27 27 27 28 28 28 28 28 28 27 27 26 26 26 26 26 26 26 26
34 34 34 34 34 33 33 33 33 32 32 31 30 29 28 28 28 27 27 27 27 27 27 27 27 27 28 28 28 29 29 29 29 29 29 29 29 29 29 30 30 30 30 31 31 31 31 30 30 29 29 28 28 28 28 28 28 28 27 27 27 27 27 26 26 26 26 27 27 27 28 28 28 28 28 28 28 28 27 26 26 26 26 26 26 26
34 34 34 34 33 33 33 33 32 32 32 31 30 29 28 27 27 27 27 27 27 26 27 27 27 27 27 28 28 28 29 29 29 29 29 30 30 30 30 30 30 30 31 31 32 32 31 31 30 29 28 28 28 28 27 27 27 27 27 27 27 27 27 27 27 27 27 27 27 27 27 28 28 29 29 29 29 29 28 27 27 26 26 27 27 27
Wind_Direction
292 291 291 290 291 291 291 291 292 292 292 292 293 294 294 296 297 298 299 300 301 302 302 303 304 304 305 305 306 306 306 307 307 307 307 306 306 305 304 303 303 303 302 302 302 302 303 304 305 305 306 306 306 307 308 309 310 311 311 311 309 307 303 300 296 292 289 285 282 279 276 274 273 272 271 271 271 271 269 268 266 265 263 261 260 259
291 291 291 291 291 291 291 291 291 291 292 292 294 295 297 299 300 302 303 303 304 304 305 304 305 305 305 306 306 306 306 306 306 306 306 306 305 305 305 304 304 303 303 303 303 303 303 304 304 304 303 303 303 304 304 305 305 305 305 304 304 303 301 300 298 296 294 292 290 287 285 284 283 282 281 280 280 278 277 275 273 271 269 267 265 264
290 291 291 292 292 291 291 291 291 292 293 294 296 298 300 302 303 304 305 305 305 305 305 305 305 306 306 306 306 306 306 306 306 306 306 305 305 305 305 305 304 304 303 302 302 302 302 302 301 301 301 300 301 301 301 301 301 301 300 300 299 298 297 296 295 294 293 292 291 290 289 288 287 286 286 284 283 282 281 280 278 277 275 273 272 270
290 291 291 291 291 291 291 291 292 293 295 297 299 300 302 302 303 304 304 305 305 304 304 304 305 305 305 306 305 305 305 305 305 304 304 304 304 303 303 302 302 301 301 300 300 300 300 299 299 298 298 298 298 298 298 298 298 298 298 297 297 296 295 294 294 292 291 290 289 288 288 287 286 285 284 283 282 281 281 280 279 278 277 276 275 274
289 290 290 290 290 291 291 292 294 295 297 299 300 301 302 302 303 303 303 303 303 303 303 302 303 303 303 303 303 302 302 302 301 301 301 301 300 300 300 300 299 299 299 299 299 298 298 298 297 297 296 296 296 296 296 295 295 295 295 295 295 294 294 293 292 291 290 289 288 286 285 284 283 282 281 280 279 278 277 277 276 275 274 274 273 272
289 289 289 290 291 291 292 294 295 297 298 299 300 301 301 301 301 301 301 301 301 301 301 300 300 301 300 300 300 299 299 299 299 299 299 299 299 298 298 298 298 298 298 298 298 298 297 297 297 297 297 296 296 295 294 293 293 292 292 291 291 291 290 290 289 289 288 287 286 284 283 281 280 279 278 276 275 274 274 273 272 271 270 270 269 269
288 289 289 290 291 292 294 295 296 297 298 299 300 300 300 300 300 300 300 299 299 299 299 299 299 299 299 299 298 298 298 298 298 298 298 298 298 298 298 298 298 298 298 297 297 297 297 297 297 297 297 297 296 296 295 293 292 291 290 290 289 288 288 287 286 285 285 284 283 282 281 279 278 277 275 274 273 272 271 270 269 268 268 267 266 266
288 289 290 292 293 294 295 296 297 297 298 298 299 299 299 299 299 299 299 298 298 298 298 298 298 298 299 298 298 298 298 298 298 298 298 298 298 298 298 298 298 298 298 298 298 297 297 297 297 298 298 297 297 297 296 295 294 293 292 291 290 288 287 286 285 284 283 283 282 281 280 279 278 276 275 274 272 271 270 269 268 267 267 266 265 265
288 290 292 293 295 296 297 297 297 297 298 298 299 299 299 298 298 297 298 298 298 298 298 297 298 298 299 299 299 298 298 298 298 298 298 298 298 298 298 298 299 299 299 299 299 299 299 299 298 298 298 298 298 297 297 297 296 296 295 294 293 292 290 289 288 286 285 284 283 282 281 280 279 278 277 275 274 272 271 270 269 268 267 266 265 264
289 291 293 294 295 296 297 297 297 297 298 298 298 298 298 298 297 296 296 297 297 298 298 298 298 299 299 299 299 299 298 298 298 298 297 297 297 297 298 298 298 299 299 299 299 300 300 300 300 299 299 298 298 298 298 298 297 297 297 296 296 295 294 293 292 291 289 288 287 285 284 283 283 282 281 279 278 276 275 273 272 271 269 268 267 266
291 292 293 294 294 295 296 296 296 296 297 297 297 297 298 298 297 297 296 297 297 297 297 298 299 299 299 299 298 298 298 298 297 297 297 297 297 298 298 298 298 299 299 300 300 300 301 301 301 301 300 300 299 299 298 298 297 297 296 296 296 296 295 295 294 294 293 292 290 289 288 288 287 286 285 284 283 282 280 279 277 275 274 272 270 268
291 292 292 293 294 294 295 295 295 295 296 296 297 297 297 297 297 298 298 298 297 297 296 297 298 298 299 299 298 298 297 297 297 297 297 298 298 299 299 299 299 299 300 300 301 301 301 301 301 301 300 300 300 299 298 298 297 296 295 295 294 294 294 294 293 293 293 293 292 291 291 290 290 289 288 288 287 286 285 284 282 280 279 277 275 272
291 292 292 292 292 293 293 293 294 294 295 296 296 296 296 296 297 297 298 298 297 297 297 297 297 298 298 298 298 298 298 298 298 298 298 299 299 299 300 300 300 300 300 301 301 301 301 301 300 300 300 299 299 299 298 297 296 296 295 294 294 293 293 292 292 292 292 291 291 291 291 290 290 289 289 288 288 287 287 286 285 284 282 281 279 277
291 291 291 291 291 291 291 292 293 293 294 295 295 295 296 296 296 296 296 297 297 297 297 297 297 297 298 298 298 298 298 298 298 298 299 299 300 300 300 300 300 300 300 300 300 300 300 300 300 299 299 299 298 298 297 296 296 295 295 294 294 293 293 293 292 292 291 291 290 290 289 289 288 288 287 287 286 286 285 285 284 284 283 282 281 280
290 290 290 290 290 291 291 292 293 294 294 295 295 296 296 296 296 296 296 297 297 298 298 298 298 297 298 298 299 299 298 298 299 299 300 300 299 299 299 300 299 299 299 299 299 299 299 299 299 299 298 298 298 297 297 296 295 295 294 294 293 293 293 293 293 292 292 291 291 290 289 288 288 287 286 285 285 284 284 283 282 282 282 281 280 280
290 290 290 290 291 291 292 292 293 294 295 295 295 296 296 296 296 296 297 297 297 298 298 299 299 298 298 298 299 299 299 299 300 300 301 300 299 299 299 299 299 299 298 298 298 298 298 298 298 298 298 297 297 296 296 295 294 294 294 293 293 293 293 293 292 292 292 292 291 291 290 289 288 287 286 285 284 283 283 282 281 281 280 279 279 278
290 290 290 291 291 291 292 293 294 295 295 295 295 296 296 296 296 297 297 297 298 298 299 299 299 299 299 299 299 299 299 300 301 301 301 301 300 299 299 299 299 298 298 298 297 297 297 297 297 297 296 296 296 295 295 294 294 294 293 293 293 293 292 292 292 292 291 291 291 290 290 289 288 287 286 285 284 283 282 282 281 280 279 278 278 277
290 290 291 291 291 292 292 293 294 295 295 295 295 296 296 296 297 297 297 298 299 299 299 300 300 300 300 300 300 300 300 301 302 302 302 301 301 300 300 300 299 299 298 298 297 297 297 297 297 296 296 296 295 294 294 294 293 293 293 293 293 293 292 292 292 291 291 290 290 290 289 289 288 287 286 285 284 283 283 282 281 280 279 278 277 277
291 291 291 292 292 292 293 294 294 295 295 295 295 296 296 296 297 297 298 299 299 300 300 300 300 300 300 301 301 301 301 302 302 302 302 302 301 301 301 301 300 300 299 299 298 298 298 298 298 297 297 296 295 295 294 294 294 294 294 294 293 293 293 292 291 291 290 290 289 289 288 288 287 287 286 286 285 284 283 282 281 281 280 279 278 278
291 291 292 292 293 293 294 295 295 295 295 295 295 296 296 296 297 297 298 299 300 300 300 300 300 300 300 301 302 302 302 302 302 302 302 302 302 301 301 301 301 301 300 300 300 300 300 300 299 299 298 298 297 296 296 296 296 295 295 295 294 294 293 293 292 291 290 290 289 288 288 287 287 287 286 286 286 285 285 284 283 283 282 281 280 279
291 291 292 292 293 294 294 295 295 295 295 295 295 295 296 296 297 297 298 299 299 300 300 300 300 300 301 301 302 301 302 302 302 302 303 302 302 302 301 301 301 302 302 302 302 302 302 302 301 301 300 300 299 299 298 298 298 297 297 296 296 295 295 294 293 292 291 290 289 288 287 287 286 286 286 286 286 286 285 285 285 285 284 283 282 281
292 292 292 293 294 294 294 295 295 295 294 295 295 295 296 296 296 297 298 298 299 299 300 300 300 300 301 301 301 301 302 302 302 302 302 303 302 301 301 301 302 302 303 303 303 303 303 303 303 303 302 302 301 300 300 300 300 299 299 298 298 297 296 295 294 293 292 291 290 289 288 287 287 286 285 285 285 285 285 285 285 285 285 284 283 282
292 293 293 293 294 294 294 294 294 294 294 294 294 295 295 296 296 297 297 297 298 298 299 299 300 300 300 301 301 301 301 302 302 302 303 303 302 301 301 302 302 303 303 303 303 303 304 304 304 304 304 303 303 302 302 302 301 301 300 300 299 298 298 297 296 295 294 293 292 291 290 288 287 286 286 285 284 284 284 284 284 284 284 283 283 282
293 293 293 293 293 293 294 294 294 294 294 294 294 295 295 295 295 296 296 296 297 297 298 298 299 299 300 300 301 301 302 302 302 303 303 304 303 302 302 303 303 304 304 303 304 304 304 305 305 305 304 304 304 303 303 303 303 302 302 301 300 300 299 298 297 296 295 294 293 292 291 290 289 287 286 285 284 284 283 283 282 282 282 281 281 280
292 293 293 293 293 293 293 293 293 293 293 293 294 294 294 294 295 295 295 295 296 296 297 298 298 299 299 300 301 302 302 303 303 304 305 305 304 304 304 304 304 305 304 304 304 304 305 305 305 305 305 304 304 304 304 304 303 303 302 302 301 300 300 299 298 297 296 296 295 294 292 291 290 288 287 286 285 284 283 282 281 280 280 279 278 278
291 291 292 292 292 292 292 293 293 293 293 293 293 293 293 294 294 294 294 295 296 296 297 298 298 299 299 300 301 302 302 303 304 304 305 305 305 305 304 304 305 305 305 304 304 305 305 305 305 305 305 304 304 304 304 304 304 303 303 302 302 301 300 300 299 298 298 297 296 295 293 292 291 289 288 286 285 284 283 282 280 279 278 277 276 275
291 291 291 291 291 291 292 292 292 292 292 292 293 293 293 293 294 294 295 295 296 297 298 298 299 299 299 300 301 301 301 302 303 303 303 304 305 305 304 304 305 305 305 305 305 305 305 306 305 305 305 304 304 304 304 304 304 303 303 303 302 302 301 300 300 299 298 297 296 295 294 293 291 290 288 287 285 284 283 281 280 278 277 275 274 273
291 291 291 291 291 291 291 291 291 291 292 292 292 292 293 293 294 294 295 295 296 297 297 298 298 298 299 299 300 300 301 302 302 302 302 304 304 304 304 304 304 305 305 305 305 305 306 306 306 305 305 304 304 304 304 304 304 303 303 303 302 302 301 301 300 300 299 298 297 296 294 293 291 290 288 287 285 283 282 280 279 277 276 274 272 271
293 293 292 292 292 291 291 291 291 291 292 292 292 292 292 292 293 293 293 294 294 295 296 296 297 297 298 298 299 300 301 301 301 301 302 303 304 304 304 304 304 304 304 305 305 306 306 306 306 306 305 305 305 304 304 304 303 303 303 303 303 302 302 301 301 300 299 298 297 296 294 293 291 290 288 286 284 282 281 279 277 276 274 272 271 269
295 295 294 293 293 292 292 292 292 292 291 291 291 291 291 292 292 292 292 292 293 294 295 296 296 297 297 298 299 299 300 301 301 301 302 303 304 303 303 304 304 304 304 304 305 306 306 306 306 306 306 306 306 305 304 304 304 303 303 303 303 303 302 302 301 300 299 298 297 296 294 293 291 290 288 286 284 281 279 277 275 274 272 270 269 267
296 296 295 295 294 294 293 293 292 292 292 292 291 291 291 291 292 292 292 292 293 294 294 295 296 296 297 298 298 299 299 300 300 300 301 302 303 303 303 303 303 303 303 304 305 305 305 305 305 305 306 306 306 306 305 305 304 304 304 303 303 303 302 302 301 300 299 298 297 296 294 293 291 290 288 285 283 281 278 276 274 272 271 269 268 266
297 296 296 295 294 294 293 293 293 292 292 292 292 292 292 292 292 292 292 293 293 294 294 295 295 296 297 297 298 298 298 299 299 299 301 302 302 302 302 302 302 303 303 303 304 305 305 305 305 305 305 306 306 306 305 305 305 305 304 304 303 303 302 301 300 299 298 297 296 295 294 292 291 289 287 285 283 280 278 276 274 272 270 269 268 266
299 298 297 296 295 294 294 293 292 292 292 291 291 291 291 291 291 292 292 292 293 293 294 294 295 295 296 297 297 298 298 299 299 299 300 301 301 302 302 302 302 302 303 303 304 305 305 305 305 305 305 305 305 305 305 305 305 305 305 304 304 303 302 300 299 297 296 295 294 293 292 291 289 288 286 284 282 280 278 276 274 273 271 269 268 267
302 301 300 299 297 296 295 294 293 292 292 291 290 290 290 290 290 291 291 291 292 293 293 294 294 295 295 296 297 298 298 299 299 300 300 301 301 301 301 301 302 302 302 303 304 305 305 305 305 305 305 305 305 304 304 304 304 304 304 304 304 303 302 300 298 296 294 292 291 290 289 288 287 286 284 283 281 279 278 276 275 273 272 270 269 267
304 304 303 302 300 299 298 296 295 294 293 292 291 291 290 290 290 290 290 291 291 292 292 293 294 294 295 296 296 297 298 298 299 299 299 300 300 301 301 301 301 301 302 302 303 304 304 304 305 305 305 305 304 304 303 303 303 303 303 303 303 302 302 300 299 296 293 291 289 287 286 285 284 283 282 280 279 277 276 275 274 273 272 271 269 268
306 305 304 304 303 301 300 299 297 296 295 294 293 292 291 291 290 290 290 291 291 292 292 293 294 294 295 296 296 297 297 298 298 299 299 299 300 300 300 300 300 301 301 302 302 303 303 304 304 304 304 305 305 304 303 302 302 302 302 302 302 301 301 300 298 297 294 292 289 286 284 282 281 280 279 277 276 275 274 273 273 272 271 270 270 268
306 306 305 305 304 303 302 301 299 298 297 296 294 293 292 292 291 291 291 291 291 292 292 293 294 294 295 296 296 297 297 298 298 299 299 299 299 300 300 300 300 301 301 301 302 302 302 303 303 304 304 304 304 303 303 302 301 301 301 301 301 300 300 299 298 296 295 293 290 287 284 281 279 277 276 275 274 273 272 271 271 270 269 269 269 268
306 306 306 305 305 304 303 302 301 299 298 297 296 295 294 293 292 292 291 292 292 292 293 293 294 294 295 296 296 297 297 298 298 299 299 299 299 300 300 300 300 300 301 301 302 302 302 303 303 304 304 304 304 303 303 302 301 300 300 299 299 299 298 297 297 296 295 293 291 288 285 282 279 277 275 273 272 271 270 269 269 268 268 267 267 266
306 306 306 306 306 305 304 303 302 301 300 298 297 296 295 294 293 293 292 292 292 293 293 293 294 294 295 295 296 296 297 297 298 298 299 299 299 299 300 300 300 300 301 301 302 303 303 303 304 304 304 304 304 303 303 302 300 299 299 298 298 297 297 296 296 295 294 293 291 289 286 283 280 277 275 273 272 270 269 268 267 267 266 265 265 264
306 306 307 307 307 306 305 304 303 302 300 299 298 297 296 295 294 294 293 293 293 293 293 294 294 294 295 295 295 296 296 297 297 298 299 299 299 299 300 300 300 301 301 302 302 303 303 304 304 304 304 304 304 304 303 302 300 299 298 297 296 296 296 295 295 294 293 292 291 289 287 285 282 279 277 274 273 271 270 269 268 266 265 264 264 263
305 306 306 307 307 307 306 305 304 303 301 300 299 298 297 296 295 294 294 294 294 294 294 294 294 295 295 295 295 296 296 297 297 298 298 299 299 299 300 300 301 301 301 302 302 303 303 304 304 304 305 304 304 304 303 301 300 298 298 296 295 295 294 294 293 293 292 291 290 289 288 285 283 281 278 276 274 273 271 270 269 268 267 265 264 263
305 306 306 307 307 307 307 306 305 303 302 301 300 299 297 296 296 295 294 294 294 294 294 294 294 294 295 295 295 295 296 296 297 297 297 298 298 299 299 300 300 300 301 301 302 302 303 303 304 304 304 304 304 304 303 301 300 298 297 296 295 295 294 293 292 291 291 290 290 289 288 286 284 282 280 278 276 274 273 272 271 270 269 268 266 265
304 305 306 306 307 307 306 306 305 304 303 302 300 299 298 297 296 295 295 294 294 293 293 293 293 293 293 294 294 294 295 295 296 296 296 297 297 298 298 298 299 300 300 301 302 302 302 303 303 304 304 304 304 304 303 301 300 298 297 297 296 295 294 293 292 291 290 290 289 288 287 286 284 283 281 279 277 276 274 274 273 272 271 271 269 268
304 304 305 305 306 306 306 306 305 304 303 302 301 299 298 297 296 295 295 294 294 293 293 292 292 292 293 293 293 293 294 294 295 295 295 295 296 297 297 298 298 299 299 300 301 302 302 303 303 304 304 305 305 304 303 302 300 299 298 297 297 296 294 292 291 290 289 288 287 287 286 285 284 283 281 280 278 277 275 275 274 274 273 272 272 271
303 304 304 305 305 306 306 306 305 304 303 302 300 299 297 296 296 295 294 294 293 293 292 292 292 292 292 292 292 293 293 293 294 294 295 295 296 296 297 298 298 299 300 300 301 302 302 303 304 304 305 305 305 304 303 302 300 299 298 297 297 296 295 293 291 290 288 287 287 286 285 284 283 282 281 280 279 277 276 276 275 275 274 273 273 272
304 304 304 304 305 305 306 306 305 304 303 302 300 298 297 296 295 294 294 293 293 293 292 292 292 292 292 292 293 293 293 293 294 294 295 296 296 297 298 298 299 300 300 301 302 302 303 304 304 305 305 305 305 304 303 301 300 299 298 297 296 295 294 293 292 290 289 287 286 285 285 284 283 282 281 280 279 278 277 277 276 275 275 274 273 273
304 304 304 304 305 305 305 305 305 304 303 301 299 297 296 295 294 293 293 293 293 292 292 292 293 293 293 293 293 293 293 294 294 295 295 296 297 297 298 299 300 300 301 302 302 303 304 304 305 305 305 305 305 303 302 301 300 299 297 297 296 294 293 292 291 290 288 287 286 285 284 284 283 282 281 280 279 278 277 277 276 276 275 274 274 273
303 304 304 304 304 304 304 304 304 304 302 301 298 297 295 294 293 293 293 292 292 292 292 293 293 293 294 294 294 294 294 294 295 295 296 296 297 297 298 299 300 301 301 302 303 303 304 305 305 305 305 305 304 303 301 300 299 299 298 297 296 294 293 292 290 289 288 287 286 285 284 284 283 282 281 279 278 278 277 276 276 275 275 274 274 273
303 303 303 303 304 304 304 304 304 303 302 300 298 296 295 294 293 292 292 292 292 292 292 292 293 293 293 294 294 294 294 295 296 296 297 297 297 298 299 299 300 301 301 302 303 303 304 304 305 305 305 305 304 303 302 301 300 300 299 298 297 296 294 293 291 289 288 287 286 286 285 284 283 282 281 280 278 277 276 276 275 275 274 274 273 272
302 303 303 303 303 303 303 303 303 303 302 300 298 296 294 293 293 292 292 292 292 292 292 292 292 293 293 293 293 294 295 295 296 297 297 298 298 299 300 300 301 301 302 302 303 303 304 304 305 306 306 305 305 304 303 302 301 301 300 299 298 297 295 294 291 290 288 287 286 285 285 284 283 282 281 280 279 277 276 275 274 274 273 273 272 271
302 302 302 302 303 303 303 303 303 303 301 300 297 295 294 293 293 292 292 291 291 291 291 292 292 293 293 293 293 294 295 295 296 297 297 298 298 299 300 301 301 302 302 303 303 304 304 305 305 306 306 305 304 303 302 302 302 301 300 299 298 297 296 294 292 290 288 286 285 284 283 283 282 282 282 281 280 279 277 276 275 274 273 272 272 271